TimeEST,TemperatureF,Dew PointF,Humidity,Sea Level PressureIn,VisibilityMPH,Wind Direction,Wind SpeedMPH,Gust SpeedMPH,PrecipitationIn,Events,Conditions,WindDirDegrees,DateUTC
12:53 AM,39.9,30.9,70,29.86,10.0,Calm,Calm,-,N/A,,Mostly Cloudy,0,2014-01-27 05:53:00
1:53 AM,39.9,32.0,73,29.85,10.0,Calm,Calm,-,N/A,,Overcast,0,2014-01-27 06:53:00
2:53 AM,41.0,32.0,70,29.86,10.0,Calm,Calm,-,N/A,,Partly Cloudy,0,2014-01-27 07:53:00
3:53 AM,41.0,32.0,70,29.86,10.0,Calm,Calm,-,0.00,,Overcast,0,2014-01-27 08:53:00
4:53 AM,39.9,32.0,73,29.89,10.0,Calm,Calm,-,N/A,,Mostly Cloudy,0,2014-01-27 09:53:00
5:53 AM,39.9,32.0,73,29.89,10.0,Calm,Calm,-,N/A,,Mostly Cloudy,0,2014-01-27 10:53:00
6:53 AM,37.0,30.9,79,29.90,10.0,Calm,Calm,-,N/A,,Clear,0,2014-01-27 11:53:00
7:53 AM,37.0,32.0,82,29.91,10.0,Calm,Calm,-,N/A,,Mostly Cloudy,0,2014-01-27 12:53:00
8:53 AM,39.0,33.1,79,29.93,10.0,Calm,Calm,-,N/A,,Partly Cloudy,0,2014-01-27 13:53:00
9:53 AM,48.9,35.1,59,29.95,10.0,Calm,Calm,-,N/A,,Clear,0,2014-01-27 14:53:00
10:53 AM,54.0,34.0,47,29.96,10.0,NNW,16.1,23.0,0.00,Rain,Light Rain,330,2014-01-27 15:53:00
11:53 AM,54.0,33.1,45,29.98,10.0,NW,15.0,23.0,N/A,,Mostly Cloudy,320,2014-01-27 16:53:00
12:53 PM,54.0,32.0,43,29.97,10.0,North,11.5,-,N/A,,Overcast,10,2014-01-27 17:53:00
1:53 PM,52.0,30.0,43,29.97,10.0,North,11.5,-,N/A,,Overcast,10,2014-01-27 18:53:00
2:53 PM,52.0,27.0,38,29.97,10.0,North,15.0,-,N/A,,Clear,360,2014-01-27 19:53:00
3:53 PM,50.0,23.0,35,29.99,10.0,NNW,8.1,-,N/A,,Clear,340,2014-01-27 20:53:00
4:53 PM,48.0,16.0,28,30.01,10.0,North,9.2,-,N/A,,Clear,350,2014-01-27 21:53:00
5:53 PM,43.0,12.0,28,30.04,10.0,NNW,12.7,18.4,N/A,,Clear,340,2014-01-27 22:53:00
6:53 PM,39.0,5.0,24,30.09,10.0,North,15.0,-,N/A,,Clear,350,2014-01-27 23:53:00
7:53 PM,35.1,1.9,25,30.12,10.0,North,11.5,-,N/A,,Clear,360,2014-01-28 00:53:00
8:53 PM,30.9,1.0,28,30.16,10.0,North,13.8,24.2,N/A,,Clear,360,2014-01-28 01:53:00
9:53 PM,28.9,1.9,32,30.18,10.0,North,15.0,24.2,N/A,,Clear,350,2014-01-28 02:53:00
10:53 PM,27.0,1.0,33,30.19,10.0,North,17.3,23.0,N/A,,Clear,350,2014-01-28 03:53:00
11:53 PM,26.1,1.0,34,30.18,10.0,North,13.8,20.7,N/A,,Clear,360,2014-01-28 04:53:00